Погода в Щучинске

Погода в Щучинске : погода сейчас, прогноз погоды и архив. Всё, что Вы хотите узнать о погоде в Щучинске!

Поиск расширенной информации на нашем сайте:

Другие новости

Новости СМИ2

Главная страница сайта

Новости сайта

02.10.2013

Напоминаем, что на нашем новом сайте вы можете получить высокодетализированные прогнозы погоды по пунктам России, СНГ и мира (включающие важные для авиации метеовеличины, такие как направление и скорость ветра, видимость, явления погоды, количество и форма облачности, нижняя и верхняя граница облачности), а также ознакомиться с разнообразными материалами по авиационной метеорологии и подборкой полезных ссылок на эту тему.

Сайт Метеоцентр.Азия посвящён разработке технологий оптимизации авиаметеорологического обслуживания, включая проектирование и перспективное создание нескольких автоматизированных авиаметеорологических систем:
- система выпуска высокодетальных прогностических карт явлений погоды для нижнего воздушного пространства по России и ближнему зарубежью;
- система верификации прогнозов TAF (выпускаемых синоптиками официальных АМСГ РФ и ближнего зарубежья) и AUTOTAF (выпускаемых сайтом Метеоцентр.Азия) - выявление ошибок, онлайн-сопоставление с фактической погодой METAR, автоматическое внесение коррективов в прогнозы при резком отклонении фактической погоды от прогноза, подсчёт оправдываемости прогнозов по элементам и в целом;
- система обработки, анализа и отображения авиаметеорологической информации для применения провайдерами метеорологической информации.


Погода в Щучинске - сегодня

Время (UTC), дата Ветер
(°,м/с) 
Видим.   Явления Облачность Т
(°С)
Тd
(°С)
f(%) Тe
(°С)
Pmin
(гПа)
dP
(гПа)
Po
(мм)
O2
(г/м3)
Тmin Tmax R s Состояние
почвы
09 17.01.17 тихо ()   4000 м  дымка  ясно 
-7.7 -11 77 -8  1041.3  -0.2  743  309           
12 17.01.17 тихо ()   0200 м  туман  ясно 
-12.7 -13.7 92 -13  1042.4  0.1  743  315           
15 17.01.17 тихо ()   н/о  {туман}  ясно 
-18.2 -20.1 85 -18  1043.5  -0.1  743  322    -6.4       
18 17.01.17 тихо ()   н/о  {туман}  ясно 
-19.9 -21.8 85 -20  1043.4  -0.5  742  324    -6.4       
21 17.01.17 160 (Ю) н/о    ясно 
-18.7 -21.1 81 -21  1042.1  -0.9  742  322           
00 18.01.17 020 (С) н/о    ясно 
-18.3 -20.3 84 -21  1041.3  -0.7  741  322           
03 18.01.17 020 (С) 20000 м    ясно 
-18.1 -20.1 84 -21  1040.9  -0.4  741  321        59  неравномерный
сухой снег
100% 
06 18.01.17 тихо ()   20000 м    3/0 верхняя 
[Ci fib]
-12.2 -13.9 87 -12  1039.4  -0.2  741  314  -20.5         
09 18.01.17 тихо ()   20000 м    ясно 
-6 -10.9 68 -6  1037  -1.1  740  306           
12 18.01.17 тихо ()   20000 м    ясно 
-13.4 -17 74 -13  1038.3  -0.2  740  315           
15 18.01.17 тихо ()   н/о    ясно 
-17.9 -19.3 89 -18  1038.3  -0.9  739  320    -3.5       
18 18.01.17 тихо ()   н/о  дымка  ясно 
-18.6 -20.4 86 -19  1037.7  -0.7  738  321    -3.5       
21 18.01.17 040 (СВ) н/о  дымка  ясно 
-16.5 -18.3 86 -19  1035.4  -1.8  737  318           
00 19.01.17 030 (СВ) н/о    ясно 
-18.2 -20.1 85 -18  1034.3  -1.3  736  319           
06 19.01.17 130 (ЮВ) 4000 м  слаб. снег  10/0 средняя, верхняя 
[As op|Cc]
-15.7 -17 90 -21  1032.7  -0.2  735  316  -19         
09 19.01.17 130 (ЮВ) 20000 м  в посл. час снег  10/0 средняя, верхняя 
[As trans|Ci sp]
-13.7 +87 100 +1276  1029.9  -2.2  734  113           
12 19.01.17 130 (ЮВ) 20000 м  {снег}  10/0 средняя, верхняя 
[Ac As|Ci sp]
-16.8 -18.6 86 -21  1030.1  -0.4  733  316           
18 19.01.17 130 (ЮВ) н/о  слаб. снег  10/0 средняя 
[As op]
-15.4 -17.3 85 -18  1026.8  -1.5  731  314    -12.4  0.0     
21 19.01.17 130 (ЮВ) н/о  слаб. снег  10/0 средняя 
[As op]
-14.9 -16.4 88 -17  1025  -1.6  730  312           
00 20.01.17 тихо ()   н/о  {снег}  4/0 верхняя 
[Ci fib]
-18.3 -19.7 89 -18  1023.8  -1.8  729  316           
03 20.01.17 130 (ЮВ) 20000 м    10/0 средняя, верхняя 
[Ac lent|Ci sp]
-19.9 -21.9 84 -23  1022.8  -1.3  728  318      0.2  59  неравномерный
сухой снег
100% 
06 20.01.17 140 (ЮВ) 20000 м  {снег}  10/0 средняя, верхняя 
[Ac As|Ci sp]
-18 -19.9 85 -21  1022.6  0.2  728  315  -20.3    0.2     
09 20.01.17 190 (Ю) 20000 м    10/0 средняя, верхняя 
[Ac lent|Ci sp]
-15.5 -18.6 77 -20  1020.4  -1.6  727  312           
12 20.01.17 140 (ЮВ) 20000 м    10/0 средняя, верхняя 
[Ac As|Ci sp]
-17.9 -20.2 82 -23  1020.3  -0.6  726  315           
21 20.01.17 120 (ЮВ) н/о  слаб. снег  10/0 средняя 
[Ac As]
-18.9 -21.2 82 -24  1015.6  -1.2  723  314           
Время (UTC), дата Ветер
(°,м/с) 
Видим.   Явления Облачность Т
(°С)
Тd
(°С)
f(%) Тe
(°С)
Pmin
(гПа)
dP
(гПа)
Po
(мм)
O2
(г/м3)
Тmin Tmax R s Состояние
почвы

Для получения пояснительной информации подведите курсор к названию столбца.

ПОГОДА в Щучинске - архив

Всё, что Вы хотите узнать о погоде в Щучинске - удобно и подробно!

Выберите нужную дату (начиная с 1 января 2015* года) и нажмите кнопку "Найти".
Будут отображены архивные сводки погоды по пункту Щучинск, начиная с указанной даты.


Отображать данные в формате CSV (для использования в таблицах Excel)


Внимание! Наш архив погоды предназначен исключительно для личного некоммерческого использования в познавательных целях. Если Вам необходимы официальные справки о состоянии погоды (для производственных, юридических, коммерческих и т.п. целей), обращайтесь в органы Росгидромета.

*Примечание: данная дата относится к архиву по метеостанциям СССР (Россия, СНГ, Балтия).
Архив по метеостанциям Зарубежной Европы и Азии (кроме Китая) хранится 10 дней, по другим регионам земного шара (Китай, Африка, Америка, Австралия, Океания) - 1 день.

Щучинск - район местоположения метеостанции


Название, широта, долгота, высота метеостанции:
Щучинск 52.9°ш. 70.2°д. 395 м над ур. моря [Казахстан]

Дополнительная информация

В oтличие oт бoльшинства пoгoдных сайтoв мы публикуем пoдрoбную метеoинфoрмацию в детальнoм прoфессиoнальнoм фoрмате.

Характеристики температуры и влажнoсти вoздуха измеряются на высoте 2 м в тени вдали oт зданий и деревьев.
Скoрoсть ветра измеряется на высoте 10 м (на урoвне рoста челoвека скoрoсть ветра ниже в 1.5-2 раза). Если метеoстанция нахoдится в гoрoде или в лесу, тo скoрoсть ветра занижена на 2-4 м/с пo сравнению с oткрытым местoм. Скoрoсть ветра над акватoриями крупных рек и oзёр, а также на вершинах хoлмoв на 2-5 м/с выше, чем в oбычных услoвиях.
Атмoсфернoе давление в разных тoчках местнoсти мoжет значительнo oтличаться oт давления на метеoстанции, в зависимoсти oт услoвий рельефа (при пoдъёме на 10 м давление пoнижается примернo на 1 мм рт.ст.).